www.pogodaiklimat.ru

Погода и климат >> Архив погоды >> Великобритания >> Ноттингем


АРХИВ ПОГОДЫ в Ноттингеме

Время (UTC), дата Ветер
(напр.,м/с)
 
Видим.   Явления Облачность Т
(С)
Тd
(С)
f
(%)
Тe
(С)
Тes
(С)
Комфортность P
(гПа)
Po
(гПа)
Тmin
(С)
Tmax
(С)
R
(мм)
R24
(мм)
S
(см)
16 16.08 Ю 6 6000 м дождь н/о +15.4 +14.7 96 +14 +14 прохладно 1003.6 989.8
17 16.08 Ю 5 3600 м дождь н/о +15.3 +14.7 96 +14 +14 прохладно 1002.5 988.7
18 16.08 Ю 5 3700 м дождь н/о +15.3 +14.8 97 +14 +14 прохладно 1001.5 987.8 +16.3 12
19 16.08 Ю 4 7000 м дождь н/о +15.5 +15.0 97 +14 +14 по сезону 1000.9 987.1
20 16.08 Ю 5 9000 м слаб. дождь н/о +15.6 +15.2 97 +14 +14 по сезону 1000.5 986.8
21 16.08 ЮЗ 5 15 км дождь н/о +15.9 +15.5 97 +15 +15 по сезону 1000.3 986.6
22 16.08 ЮЗ 4 35 км в посл. час дождь н/о +16.0 +15.6 97 +15 +15 тепло 999.8 986.1
23 16.08 ЮЗ 5 40 км н/о +16.2 +15.7 97 +15 +15 тепло 999.4 985.7
00 17.08 ЮЗ 6 40 км н/о +16.0 +15.1 94 +15 +15 тепло 999.5 985.8 8
01 17.08 ЮЗ 5 30 км н/о +14.7 +12.1 84 +13 +13 тепло 1000.0 986.2
02 17.08 ЮЗ 4 20 км н/о +13.3 +11.7 90 +12 +12 по сезону 1000.2 986.3
03 17.08 ЮЗ 6 17 км н/о +13.2 +11.7 91 +11 +11 по сезону 1000.2 986.4
04 17.08 ЮЗ 4 17 км н/о +12.9 +11.4 91 +11 +11 тепло 1000.5 986.6
05 17.08 ЮЗ 3 11 км н/о +12.3 +11.3 94 +11 +11 по сезону 1000.4 986.5
06 17.08 ЮЗ 4 15 км н/о +12.9 +11.8 93 +11 +11 по сезону 1000.7 986.8 +12.3 8
07 17.08 ЮЗ 5 18 км н/о +14.7 +12.6 87 +13 +13 по сезону 1001.0 987.2
08 17.08 ЮЗ 4 16 км в посл. час дождь н/о +16.0 +13.2 83 +15 +15 по сезону 1001.2 987.5
09 17.08 ЮЗ 6 16 км н/о +16.7 +12.7 77 +16 +16 по сезону 1001.4 987.7
10 17.08 ЮЗ 5 21 км н/о +18.4 +12.1 67 +18 +18 по сезону 1001.6 987.9
11 17.08 З 6 24 км н/о +18.9 +9.0 53 +19 +19 по сезону 1001.9 988.3
12 17.08 З 6 22 км н/о +18.6 +8.8 53 +18 +18 по сезону 1002.3 988.7 0.0
13 17.08 ЮЗ 7
{13}
23 км н/о +19.7 +7.8 46 +20 +20 тепло 1002.3 988.7
14 17.08 ЮЗ 6 30 км н/о +19.8 +8.3 47 +20 +20 тепло 1002.4 988.8
15 17.08 З 6 19 км н/о +20.2 +6.3 40 +21 +21 комфорт 1002.4 988.9
16 17.08 ЮЗ 6 25 км н/о +20.4 +7.8 44 +21 +21 комфорт 1002.4 988.9
17 17.08 ЮЗ 5 24 км н/о +18.8 +8.0 49 +19 +19 тепло 1002.4 988.8
18 17.08 З 4
{13}
23 км в посл. час дождь н/о +17.6 +8.5 55 +17 +17 по сезону 1002.5 988.8 +20.6 0.0
19 17.08 ЮЗ 3 30 км н/о +16.6 +9.4 62 +17 +17 тепло 1002.5 988.8
20 17.08 ЮЗ 3 30 км н/о +15.1 +9.9 71 +15 +15 по сезону 1002.8 989.0
21 17.08 ЮЗ 3 35 км н/о +14.6 +8.6 67 +14 +14 по сезону 1002.4 988.6
22 17.08 ЮЗ 4 18 км н/о +14.6 +8.9 69 +14 +14 тепло 1002.7 988.9
23 17.08 ЮЗ 4 18 км н/о +14.3 +9.2 71 +13 +13 по сезону 1002.7 988.9
00 18.08 ЮЗ 4 17 км н/о +13.9 +9.3 74 +12 +12 по сезону 1002.7 988.9
01 18.08 ЮЗ 3 17 км н/о +13.3 +9.9 80 +12 +12 тепло 1002.2 988.3
02 18.08 ЮЗ 3 15 км н/о +12.8 +10.2 84 +11 +11 по сезону 1001.9 988.0
03 18.08 ЮЗ 3 17 км н/о +12.6 +10.1 85 +11 +11 по сезону 1001.6 987.7
04 18.08 ЮЗ 4 18 км н/о +12.3 +10.1 86 +10 +10 по сезону 1001.4 987.5
05 18.08 ЮЗ 3 15 км н/о +11.6 +10.2 91 +10 +10 по сезону 1001.4 987.4
06 18.08 ЮЗ 3 14 км н/о +11.8 +10.7 93 +10 +10 по сезону 1001.1 987.2 +11.3
07 18.08 ЮЗ 3 14 км н/о +13.4 +11.4 88 +12 +12 по сезону 1001.0 987.2
08 18.08 ЮЗ 4 22 км н/о +15.4 +11.6 78 +14 +14 по сезону 1001.0 987.3
09 18.08 ЮЗ 6 24 км н/о +16.1 +10.6 70 +15 +15 по сезону 1001.1 987.4
10 18.08 З 5 24 км н/о +16.3 +9.9 66 +15 +15 прохладно 1001.4 987.6
11 18.08 ЮЗ 6 30 км н/о +17.9 +10.1 60 +17 +17 по сезону 1001.4 987.8
12 18.08 ЮЗ 7 23 км н/о +18.8 +9.2 54 +19 +19 по сезону 1001.6 987.9
13 18.08 З 6 30 км н/о +19.4 +9.9 54 +20 +20 тепло 1001.8 988.2
14 18.08 З 7 30 км н/о +19.9 +8.5 48 +20 +20 тепло 1002.1 988.6
15 18.08 З 6 40 км н/о +19.1 +8.0 49 +19 +19 по сезону 1002.4 988.8
16 18.08 ЮЗ 7-12
{13}
35 км н/о +18.0 +7.7 51 +17 +17 по сезону 1003.0 989.3
17 18.08 ЮЗ 6 26 км н/о +18.8 +8.7 52 +19 +19 тепло 1003.2 989.6
18 18.08 ЮЗ 5 23 км н/о +17.8 +8.7 55 +17 +17 по сезону 1003.5 989.8 +19.9
19 18.08 ЮЗ 6-13
{13}
18 км н/о +17.1 +7.9 55 +16 +16 тепло 1003.8 990.0
20 18.08 ЮЗ 5 27 км н/о +15.9 +8.5 61 +15 +15 по сезону 1004.5 990.8
21 18.08 ЮЗ 5 20 км н/о +15.8 +9.1 64 +15 +15 по сезону 1005.3 991.5
22 18.08 ЮЗ 4 20 км н/о +15.0 +9.5 70 +14 +14 тепло 1005.8 992.0
23 18.08 ЮЗ 4 16 км н/о +14.0 +9.8 76 +13 +13 по сезону 1006.4 992.6
00 19.08 ЮЗ 4 16 км н/о +13.9 +10.0 77 +12 +12 по сезону 1006.7 992.8
01 19.08 ЮЗ 4 18 км н/о +13.4 +10.0 80 +12 +12 тепло 1006.9 993.0
02 19.08 ЮЗ 4 15 км н/о +13.0 +10.2 83 +11 +11 по сезону 1007.0 993.0
03 19.08 ЮЗ 3 13 км н/о +12.5 +10.3 86 +11 +11 по сезону 1007.2 993.3
04 19.08 ЮЗ 3 12 км н/о +12.0 +10.4 90 +10 +10 по сезону 1007.8 993.8
05 19.08 ЮЗ 3 13 км н/о +12.2 +10.7 91 +11 +11 по сезону 1008.5 994.5
06 19.08 ЮЗ 3 16 км н/о +12.4 +11.0 91 +11 +11 по сезону 1009.1 995.1 +11.9
07 19.08 ЮЗ 3 16 км н/о +13.3 +11.7 90 +12 +12 по сезону 1009.6 995.6
08 19.08 З 4 24 км н/о +15.0 +11.4 79 +14 +14 по сезону 1010.2 996.3
09 19.08 З 4 26 км н/о +16.1 +10.6 70 +16 +16 по сезону 1010.8 996.9
10 19.08 З 4 21 км н/о +16.7 +9.6 63 +16 +16 прохладно 1011.3 997.5
11 19.08 З 4 23 км н/о +18.1 +9.7 58 +18 +18 по сезону 1011.5 997.8
12 19.08 З 4 15 км н/о +19.1 +9.2 53 +20 +20 тепло 1011.7 998.0
13 19.08 З 6 19 км н/о +17.9 +10.1 60 +17 +17 по сезону 1012.3 998.5
14 19.08 З 6 50 км в посл. час дождь н/о +17.6 +10.5 63 +17 +17 по сезону 1012.7 998.9
15 19.08 З 4 17 км слаб. ливневой дождь н/о +16.2 +10.8 70 +16 +16 по сезону 1013.0 999.1
16 19.08 З 7 35 км в посл. час дождь н/о +18.8 +8.2 50 +19 +19 тепло 1013.0 999.2
17 19.08 З 5 30 км н/о +18.8 +8.1 50 +19 +19 тепло 1013.3 999.5
18 19.08 З 6 35 км н/о +17.5 +7.5 52 +17 +17 по сезону 1013.9 1000.1 +19.4 0.2
19 19.08 З 5 29 км н/о +16.3 +7.8 57 +16 +16 тепло 1014.6 1000.7
20 19.08 З 4 29 км н/о +14.9 +7.5 61 +14 +14 по сезону 1015.4 1001.4
21 19.08 З 4 35 км н/о +14.1 +8.0 67 +13 +13 по сезону 1015.9 1001.8
22 19.08 ЮЗ 3 30 км н/о +13.2 +8.3 72 +12 +12 по сезону 1016.5 1002.4
23 19.08 ЮЗ 2 26 км н/о +12.1 +8.3 78 +11 +11 по сезону 1017.0 1002.8
00 20.08 ЮЗ 3 27 км н/о +11.7 +8.6 81 +10 +10 прохладно 1017.4 1003.2
01 20.08 ЮЗ 3 24 км н/о +11.4 +8.7 83 +10 +10 по сезону 1017.3 1003.1
02 20.08 ЮЗ 2 25 км н/о +11.0 +8.7 86 +10 +10 по сезону 1017.4 1003.2
03 20.08 ЮЗ 3 24 км н/о +10.3 +8.9 91 +8 +8 прохладно 1017.7 1003.5
04 20.08 ЮЗ 3 25 км н/о +10.2 +9.1 93 +8 +8 по сезону 1018.0 1003.8
05 20.08 ЮЗ 2 16 км н/о +9.5 +8.7 95 +8 +8 по сезону 1018.7 1004.4
06 20.08 ЮЗ 2 20 км н/о +9.9 +9.2 95 +8 +8 прохладно 1019.3 1005.0 +9.4
07 20.08 ЮЗ 3 22 км н/о +11.2 +9.8 91 +9 +9 холодно 1019.9 1005.6
08 20.08 З 4 23 км н/о +13.5 +10.0 79 +12 +12 прохладно 1020.2 1006.1
09 20.08 З 3 28 км н/о +14.4 +9.6 73 +13 +13 прохладно 1021.0 1006.9
10 20.08 З 4 30 км н/о +15.4 +8.9 65 +14 +14 холодно 1021.5 1007.5
11 20.08 З 5 35 км н/о +16.2 +7.4 56 +15 +15 прохладно 1021.7 1007.7
12 20.08 З 4 23 км н/о +17.4 +6.7 49 +17 +17 по сезону 1021.7 1007.8
13 20.08 З 5 30 км н/о +16.8 +6.6 51 +16 +16 прохладно 1022.2 1008.3
14 20.08 З 5 30 км н/о +17.3 +6.7 50 +17 +17 по сезону 1022.5 1008.6
15 20.08 З 4 35 км н/о +17.2 +7.1 51 +17 +17 по сезону 1022.8 1008.8
16 20.08 З 4 24 км н/о +18.1 +6.8 48 +18 +18 по сезону 1022.9 1008.9
17 20.08 З 3 35 км н/о +17.8 +6.9 49 +18 +18 по сезону 1023.2 1009.3
18 20.08 З 2 30 км н/о +17.5 +6.6 49 +18 +18 по сезону 1023.6 1009.6 +18.6
19 20.08 З 3 23 км н/о +16.4 +7.0 54 +16 +16 тепло 1024.1 1010.1
20 20.08 З 3 40 км н/о +16.1 +7.3 56 +16 +16 по сезону 1024.5 1010.5
21 20.08 СЗ 2 30 км н/о +15.5 +8.4 63 +16 +16 по сезону 1024.6 1010.6
22 20.08 З 2 24 км в посл. час дождь н/о +14.7 +9.5 71 +15 +15 тепло 1025.0 1010.9
23 20.08 Ю 2 21 км в посл. час дождь н/о +13.8 +10.7 82 +14 +14 тепло 1025.0 1010.8
00 21.08 ЮЗ 3 30 км н/о +14.0 +11.1 83 +13 +13 по сезону 1024.8 1010.7 0.2
01 21.08 ЮЗ 3 26 км н/о +13.7 +11.4 86 +12 +12 тепло 1024.9 1010.7
02 21.08 ЮЗ 3 19 км н/о +13.3 +11.4 88 +12 +12 по сезону 1025.1 1010.9
03 21.08 ЮЗ 3 21 км н/о +13.0 +11.2 89 +12 +12 по сезону 1025.1 1010.9
04 21.08 ЮЗ 3 17 км н/о +12.3 +10.8 91 +11 +11 тепло 1025.2 1010.9
05 21.08 ЮЗ 3 15 км н/о +11.6 +10.5 93 +10 +10 по сезону 1025.5 1011.2
06 21.08 ЮЗ 2 15 км н/о +11.9 +10.9 94 +11 +11 по сезону 1025.6 1011.4 +11.4 0.2
07 21.08 ЮЗ 4 14 км н/о +13.3 +11.4 88 +12 +12 по сезону 1025.9 1011.7
08 21.08 ЮЗ 4 21 км н/о +14.4 +11.3 82 +13 +13 по сезону 1026.0 1011.9
09 21.08 З 3 20 км н/о +14.9 +11.6 81 +14 +14 по сезону 1025.9 1011.8
10 21.08 ЮЗ 4 30 км н/о +15.8 +11.4 75 +15 +15 прохладно 1026.0 1011.9
11 21.08 ЮЗ 4 35 км н/о +18.2 +10.8 62 +18 +18 по сезону 1025.4 1011.4
12 21.08 ЮЗ 4 45 км н/о +18.8 +9.5 55 +19 +19 по сезону 1025.1 1011.2
13 21.08 ЮЗ 5 45 км н/о +19.9 +10.2 54 +21 +21 комфорт 1024.5 1010.7
14 21.08 ЮЗ 5 29 км н/о +20.3 +9.6 50 +22 +22 комфорт 1024.0 1010.2
15 21.08 ЮЗ 4 35 км н/о +19.5 +9.8 53 +20 +20 тепло 1023.7 1009.8
16 21.08 ЮЗ 4 30 км н/о +19.9 +11.0 56 +21 +21 комфорт 1023.3 1009.4
17 21.08 ЮЗ 5 30 км н/о +19.7 +9.8 53 +21 +21 комфорт 1023.1 1009.2
18 21.08 ЮЗ 4 45 км н/о +19.0 +9.7 55 +20 +20 тепло 1022.7 1008.8 +20.5
19 21.08 ЮЗ 3 40 км н/о +18.1 +10.1 60 +18 +18 тепло 1023.0 1009.1
20 21.08 ЮЗ 4 50 км н/о +17.2 +10.3 64 +17 +17 тепло 1023.2 1009.3
21 21.08 ЮЗ 3 40 км н/о +15.8 +10.4 70 +15 +15 по сезону 1023.3 1009.2
22 21.08 ЮЗ 3 45 км н/о +15.4 +10.2 71 +15 +15 тепло 1023.2 1009.1
23 21.08 ЮЗ 4 28 км н/о +14.8 +10.3 74 +14 +14 тепло 1022.7 1008.6
00 22.08 ЮЗ 4 30 км н/о +14.6 +10.1 74 +14 +14 по сезону 1022.4 1008.3
01 22.08 ЮЗ 3 30 км н/о +14.3 +10.4 77 +13 +13 тепло 1022.2 1008.1
02 22.08 ЮЗ 4 25 км н/о +14.1 +10.7 80 +13 +13 тепло 1022.0 1007.9
03 22.08 ЮЗ 3 25 км н/о +13.9 +10.6 80 +13 +13 по сезону 1022.0 1007.8
04 22.08 ЮЗ 4 20 км н/о +13.8 +10.7 82 +12 +12 тепло 1021.4 1007.3
05 22.08 ЮЗ 4 23 км н/о +14.0 +11.1 83 +12 +12 тепло 1021.3 1007.2
06 22.08 ЮЗ 4 30 км н/о +14.4 +11.3 82 +13 +13 по сезону 1021.6 1007.5 +13.7
07 22.08 ЮЗ 4 22 км н/о +15.1 +11.9 81 +14 +14 по сезону 1021.4 1007.4
08 22.08 ЮЗ 5 17 км н/о +16.0 +12.6 80 +15 +15 по сезону 1021.7 1007.7
09 22.08 ЮЗ 5 17 км н/о +16.8 +13.1 79 +16 +16 по сезону 1021.7 1007.7
10 22.08 ЮЗ 6 20 км н/о +18.7 +13.7 73 +19 +19 тепло 1021.6 1007.7
11 22.08 ЮЗ 6 35 км н/о +18.6 +13.6 73 +19 +19 тепло 1021.6 1007.7
12 22.08 ЮЗ 6 35 км н/о +19.2 +13.9 71 +20 +20 тепло 1021.9 1008.0
13 22.08 ЮЗ 5 26 км н/о +19.9 +14.2 70 +22 +22 комфорт 1021.8 1007.9
14 22.08 ЮЗ 6 40 км н/о +21.6 +14.3 63 +25 +25 комфорт 1021.2 1007.4
15 22.08 ЮЗ 7-12
{14}
30 км н/о +20.5 +14.2 67 +23 +23 комфорт 1021.3 1007.5
16 22.08 ЮЗ 7
{13}
40 км н/о +20.4 +14.1 67 +22 +22 комфорт 1021.4 1007.6
17 22.08 ЮЗ 5
{13}
40 км в посл. час дождь н/о +20.1 +14.2 69 +22 +22 комфорт 1021.5 1007.6
18 22.08 ЮЗ 6
{13}
35 км н/о +19.7 +14.3 71 +21 +21 комфорт 1021.7 1007.8 +21.9 0.0
19 22.08 ЮЗ 5 45 км н/о +19.5 +14.4 72 +21 +21 комфорт 1022.0 1008.1
20 22.08 ЮЗ 4 28 км н/о +19.0 +14.2 74 +20 +20 тепло 1022.8 1009.0
21 22.08 ЮЗ 4 30 км н/о +18.4 +14.0 76 +19 +19 тепло 1023.3 1009.4
22 22.08 ЮЗ 4 35 км н/о +17.6 +13.9 79 +17 +17 тепло 1023.5 1009.5
23 22.08 ЮЗ 3 30 км н/о +17.0 +14.0 82 +17 +17 тепло 1023.8 1009.8
00 23.08 ЮЗ 3 29 км н/о +16.5 +14.1 86 +16 +16 тепло 1023.9 1009.8
01 23.08 ЮЗ 2 28 км н/о +15.8 +14.0 89 +16 +16 тепло 1024.0 1010.0
02 23.08 З 3 30 км н/о +16.4 +14.4 88 +16 +16 тепло 1024.0 1010.0
03 23.08 Ю 2 28 км н/о +15.8 +13.9 88 +16 +16 тепло 1024.2 1010.2
04 23.08 ЮЗ 3 15 км н/о +14.8 +13.8 94 +14 +14 тепло 1024.2 1010.0
05 23.08 ЮЗ 2 14 км н/о +14.2 +13.4 95 +14 +14 тепло 1024.2 1010.1
06 23.08 ЮЗ 3 17 км н/о +14.8 +14.0 95 +14 +14 тепло 1024.4 1010.3 +14.1
07 23.08 З 2 16 км н/о +15.6 +14.2 91 +15 +15 тепло 1024.7 1010.6
08 23.08 ЮЗ 3 35 км н/о +17.4 +14.9 85 +17 +17 тепло 1024.6 1010.6
09 23.08 ЮЗ 2 50 км н/о +19.3 +15.6 79 +22 +22 комфорт 1024.4 1010.5
10 23.08 ЮЗ 3 24 км н/о +20.4 +15.3 73 +24 +24 комфорт 1024.2 1010.3
11 23.08 ЮЗ 4 30 км н/о +21.4 +15.4 69 +25 +25 комфорт 1024.0 1010.2
12 23.08 Ю 4 26 км н/о +22.0 +15.1 65 +26 +26 душно 1023.8 1010.0
13 23.08 ЮЗ 3 12 км н/о +22.7 +16.0 66 +27 +27 душно 1023.5 1009.7
14 23.08 ЮЗ 3 20 км н/о +23.6 +15.6 61 +27 +27 жарко 1023.0 1009.4
15 23.08 ЮЗ 3 24 км н/о +24.2 +15.3 58 +27 +27 жарко 1022.5 1008.9
16 23.08 ЮЗ 3 30 км н/о +24.5 +14.9 55 +27 +27 жарко 1022.1 1008.5
17 23.08 ЮЗ 3 30 км н/о +24.5 +15.4 57 +27 +27 жарко 1021.6 1007.9

 

Местоположение метеостанции Ноттингем (Великобритания): широта 53.00 долгота -1.25 высота над уровнем моря 117 м.

В архиве по умолчанию представлена погода в Ноттингеме за последнюю неделю. Архивные данные за месяц целиком и за предыдущие месяцы, начиная с января 2011 года, Вы можете получить, выбрав интересующий диапазон дат из раскрывающегося списка и нажав кнопку "Ввод!".


*Определитесь, кто Вы:
робот инопланетянин человек

Внимание! Время в таблицах - всемирное. Для получения местного времени необходимо прибавить поправку, которая равна 0 ч.

Смотрите также архив погоды в соседних городах и на ближайших метеорологических станциях:

Погода в Крануэлле (Великобритания) (50 км)
Погода в Лик-Торнклифф (Великобритания) (51 км)
Погода в Уоддингтоне (Великобритания) (52 км)
Погода в Скемптоне (Великобритания) (57 км)
Погода в Колсхилле (Великобритания) (65 км)
Погода в Виттеринге (Великобритания) (67 км)
Погода в Черч Лоуфорд (Великобритания) (70 км)
Погода в Лидс-Брэдфорд (Великобритания) (72 км)
Погода на Авиабазе Coningsby (Великобритания) (73 км)
Погода на Ростерн Мир (Великобритания) (84 км)

Пояснения к столбцам:

Ветер - указаны скорость ветра в м/с - средняя за 10 мин, порывы в срок и между сроками (в фигурных скобках) и направление, откуда дует ветер: С - северный, СВ - северо-восточный, В - восточный, ЮВ - юго-восточный, Ю - южный, ЮЗ - юго-западный, З - западный, СЗ - северо-западный.
Видимость - горизонтальная дальность видимости в метрах или километрах. При видимости от 1 до 10 км при отсутствии осадков обычно наблюдается дымка, при ухудшении видимости до 1 км и менее - туман. В сухую погоду видимость может ухудшаться дымом, пылью или мглою.
Явления - указаны атмосферные явления, наблюдавшиеся в срок или в последний час перед сроком; фигурными скобками обозначены явления, наблюдавшиеся между сроками (за 1-3 часа до срока); квадратными скобками обозначены град или гололедные отложения с указанием их диаметра в мм.
Облачность - указаны через наклонную черту общая и нижняя облачность в баллах и высота нижней границы облаков в метрах; квадратными скобками обозначены формы облаков: Ci - перистые, Cs - перисто-слоистые, Cc - перисто-кучевые, Ac - высококучевые, As - высокослоистые, Sc - слоисто-кучевые, Ns - слоисто-дождевые, Cu - кучевые, Cb - кучево-дождевые. Подробнее классификацию облаков см. в Атласе облаков (PDF).
T - Температура воздуха - температура, измеренная на высоте 2 м над землей.
Td - Температура точки росы - температура, при понижении до которой содержащийся в воздухе водяной пар достигнет насыщения.
f - Относительная влажность воздуха - влажноcть воздуха, измеренная на высоте 2 м над землей.
Te - Эффективная температура - температура, которую ощущает одетый по сезону человек в тени. Характеристика душности погоды. При расчете учитывается влияние влажности воздуха и скорости ветра на теплоощущения человека.
Tes - Эффективная температура на солнце - температура, которую ощущает человек, с поправкой на солнечный нагрев. Характеристика знойности погоды. Зависит от высоты солнца над горизонтом, облачности и скорости ветра. Ночью, в пасмурную погоду, а также при ветре 12 м/с и более поправка равна нулю.
P - Атмосферное давление - приведенное к уровню моря атмосферное давление.
Po - Атмосферное давление - измеренное на уровне метеостанции атмосферное давление.
Tmin - Минимальная температура - минимум температуры воздуха на высоте 2 м над землей.
Tmax - Максимальная температура - максимум температуры воздуха на высоте 2 м над землей.
R - Количество осадков - Количество выпавших осадков за период времени, мм. При наведении курсора мыши на число - период времени, за который выпало указанное количество осадков.
R24 - Количество осадков - Количество выпавших осадков за 24 часа, мм.
S - Снежный покров - Высота снежного покрова, см. При наведении курсора мыши на число - состояние снежного покрова и степень покрытия местности в баллах.